Weather observations for the past three days for
Salina, Salina Municipal Airport
Imperial (Metric)
Date Time (cdt) Wind (mph) Vis. (mi.) Weather Sky Cond. Temperature (ºF) Relative Humidity Wind Chill (°F) Heat Index (°F) Pressure Precipitation (in)
Air Dwpt 6 hour altimeter (in) sea level (mb) 1 hr 3 hr 6 hr
Max. Min.
13 09:53 S 21 G 30 10.00 Fair and Breezy CLR 86 64.9 49% 88 29.99 1013.7
13 08:53 SW 12 G 17 10.00 Fair CLR 86 64 48% 87 30.02 1014.6
13 07:53 S 17 G 22 10.00 Fair CLR 82.9 64 53% 84 30 1013.9
13 06:53 S 6 10.00 Fair CLR 75.9 64.9 84.9 75.9 69% 78 29.99 1013.8
13 05:53 S 12 10.00 Fair CLR 78.1 64 62% 80 29.97 1012.9
13 04:53 S 14 G 24 10.00 Fair CLR 81 64.9 58% 83 29.95 1012.4
13 03:53 SW 15 10.00 Fair CLR 82 64.9 56% 84 29.97 1013.0
13 02:53 S 14 10.00 Fair CLR 84 66 55% 86 29.95 1012.4
13 01:53 S 16 G 23 10.00 Fair CLR 84.9 66 53% 87 29.96 1012.5
13 00:53 S 12 10.00 Fair CLR 84.9 66 99 84 53% 87 29.96 1012.6
12 23:53 S 12 10.00 Fair CLR 84 66.9 57% 87 29.97 1012.9
12 22:53 SE 9 10.00 Fair CLR 86 69.1 57% 90 29.97 1013.0
12 21:53 E 7 10.00 Fair CLR 91.9 66 43% 95 29.96 1012.6
12 20:53 SE 5 10.00 Fair CLR 91.9 64.9 41% 94 29.94 1012.0
12 19:53 S 7 10.00 Fair CLR 95 63 35% 96 29.93 1011.8
12 18:53 S 15 10.00 Fair CLR 99 64 100.9 95 32% 102 29.91 1011.2
12 17:53 SE 16 G 22 10.00 Fair CLR 100 68 35% 106 29.9 1010.9
12 16:53 SE 18 10.00 Fair CLR 99 66.9 35% 104 29.92 1011.5
12 15:53 SE 13 G 24 10.00 Fair CLR 100 66.9 34% 105 29.93 1011.7
12 14:53 S 17 G 24 10.00 Fair CLR 99 66.9 35% 104 29.94 1012.0
12 13:53 SE 17 10.00 Fair CLR 98.1 69.1 39% 104 29.94 1012.3
12 12:53 SE 16 10.00 Fair CLR 95 68 96.1 71.1 41% 100 29.96 1012.7
12 11:53 SE 14 G 20 10.00 Fair CLR 93 69.1 46% 98 29.97 1013.1
12 10:53 SE 13 10.00 Fair CLR 89.1 70 53% 94 29.97 1013.4
12 08:53 SE 14 10.00 Fair CLR 79 69.1 72% 82 29.99 1013.8
12 07:53 SE 9 10.00 Fair CLR 75 69.1 82% 75 29.99 1014.1
12 06:53 SE 8 10.00 Fair CLR 71.1 68 78.1 70 90% 29.98 1013.7
12 05:53 SE 7 10.00 Fair CLR 72 68 87% 29.97 1013.5
12 04:53 E 7 10.00 Fair CLR 73 69.1 87% 29.95 1012.6
12 03:53 E 6 10.00 Fair CLR 73.9 70 88% 29.94 1012.3
12 02:53 E 6 10.00 Fair CLR 75 70 84% 75 29.95 1012.6
12 01:53 E 8 10.00 Fair CLR 77 70 79% 79 29.96 1013.1
12 00:53 E 7 10.00 Fair CLR 78.1 70 91.9 78.1 76% 80 29.98 1013.5
11 23:53 E 9 10.00 Fair CLR 80.1 70 71% 83 29.98 1013.6
11 22:53 E 9 10.00 Fair CLR 81 70 69% 84 29.98 1013.5
11 21:53 E 10 10.00 Fair CLR 82.9 70 65% 87 29.98 1013.4
11 20:53 E 13 10.00 Fair CLR 86 70 59% 91 29.97 1013.1
11 19:53 E 9 10.00 Fair CLR 89.1 69.1 52% 94 29.95 1012.7
11 18:53 E 9 10.00 A Few Clouds FEW055 91.9 69.1 95 89.1 47% 97 29.94 1012.3
11 17:53 E 8 10.00 A Few Clouds FEW055 91.9 68 46% 96 29.95 1012.6
11 16:53 SE 14 10.00 A Few Clouds FEW060 93 66.9 42% 97 29.96 1012.8
11 15:53 E 14 G 24 10.00 Mostly Cloudy BKN060 93 68 44% 97 29.97 1013.4
11 14:53 SE 10 10.00 Partly Cloudy SCT050 93 66 41% 96 29.98 1013.6
11 13:53 E 12 10.00 A Few Clouds FEW050 91.9 66.9 44% 95 29.99 1014.0
11 12:53 SE 10 10.00 Fair CLR 90 66 90 72 45% 93 30 1014.4
11 11:53 SE 9 10.00 Fair CLR 88 64.9 46% 90 30.02 1014.8
11 10:53 Vrbl 6 10.00 Fair CLR 86 66 51% 88 30.01 1014.8
11 09:53 E 9 10.00 Fair CLR 82.9 66 57% 85 30.01 1014.8
11 08:53 SE 9 10.00 Fair CLR 82 64 55% 84 30.01 1014.5
11 06:53 S 6 10.00 Fair CLR 72 63 79 70 73% 30 1014.4
11 05:53 S 9 10.00 Fair CLR 71.1 62.1 73% 30 1014.1
11 04:53 SE 8 10.00 Mostly Cloudy BKN095 72 63 73% 30 1014.1
11 03:53 S 6 10.00 Mostly Cloudy BKN095 72 63 73% 30 1014.4
11 02:53 SE 15 10.00 Mostly Cloudy BKN095 75.9 63 64% 78 30.01 1014.5
11 01:53 N 7 10.00 Thunderstorm BKN090 OVC110 77 61 58% 79 30.01 1014.8
11 00:53 S 3 10.00 Partly Cloudy SCT120 75 60.1 93 75 60% 77 30 1014.3
10 23:53 SE 3 10.00 Fair CLR 77 60.1 56% 79 30 1014.3
10 22:53 SE 6 10.00 Fair CLR 77 61 58% 79 29.98 1013.7
10 21:53 SE 10 10.00 Fair CLR 82 60.1 47% 82 29.97 1013.3
10 20:53 SE 6 10.00 Partly Cloudy SCT110 87.1 60.1 40% 87 29.98 1013.6
10 19:53 SE 13 10.00 Fair CLR 91 59 34% 90 29.96 1013.2
10 18:53 S 10 10.00 Mostly Cloudy BKN100 91.9 57 97 91.9 31% 91 29.96 1013.1
10 17:53 S 9 10.00 Mostly Cloudy SCT095 BKN110 96.1 55.9 26% 94 29.96 1012.9
10 16:53 E 5 10.00 Fair CLR 96.1 55.9 26% 94 29.97 1013.5
10 15:53 Calm 10.00 A Few Clouds FEW110 95 55 26% 93 29.99 1014.1
10 14:53 Vrbl 6 10.00 Fair CLR 93.9 55 27% 92 30 1014.4
10 13:53 Vrbl 5 10.00 Fair CLR 93 55 28% 91 30.01 1014.8
10 12:53 Vrbl 3 10.00 Fair CLR 91.9 55.9 93 63 30% 90 30.02 1015.3
10 11:53 Vrbl 3 10.00 Fair CLR 90 57.9 34% 89 30.04 1015.7
Date Time (cdt) Wind (mph) Vis. (mi.) Weather Sky Cond. Air Dwpt Max. Min. Relative Humidity Wind Chill (°F) Heat Index (°F) altimeter (in) sea level (mb) 1 hr 3 hr 6 hr
6 hour
Temperature (ºF) Pressure Precipitation (in)